Weather History for Altus AFB, OK

Change the Weather History Date:

Wednesday, March 27, 2013

  Actual Average Record
Temperature  
Mean Temperature 56 °F -  
Max Temperature 76 °F 67 °F 89 °F (2008)
Min Temperature 38 °F 43 °F 28 °F (2009)
Degree Days  
Heating Degree Days 8    
Growing Degree Days 6 (Base 50)    
Moisture  
Dew Point 33 °F    
Average Humidity 43    
Maximum Humidity 58    
Minimum Humidity 25    
Precipitation  
Precipitation 0.00 in - - ()
Sea Level Pressure  
Sea Level Pressure 30.07 in    
Wind  
Wind Speed 16 mph (SSE)    
Max Wind Speed 23 mph    
Max Gust Speed 32 mph    
Visibility 10 miles    
Events      
Averages and records for this station are not official NWS values.
T = Trace of Precipitation, MM = Missing Value Source: NWS Daily Summary

Daily Weather History Graph

Daily Weather History Graph

Search for Another Location

Airport:

Trip Planner

Search our weather history database for the weather conditions in past years. The results will help you decide how hot, cold, wet, or windy it might be!

Date:

Astronomy

Mar. 27, 2013 Rise Set
Actual Time 7:30 AM CDT 7:54 PM CDT
Civil Twilight 7:05 AM CDT 8:19 PM CDT
Nautical Twilight 6:35 AM CDT 8:49 PM CDT
Astronomical Twilight 6:05 AM CDT 9:19 PM CDT
Moon 8:36 PM CDT (3/27) 7:24 AM CDT (3/27)
Length of Visible Light 13h 14m
Length of Day
12h 23m
Full, 100% of the Moon is Illuminated
Mar 27
Full
Apr 2
Last Quarter
Apr 10
New
Apr 18
First Quarter
Apr 25
Full

Hourly Weather History & Observations

Time (CDT) Temp. Windchill Dew Point Humidity Pressure Visibility Wind Dir Wind Speed Gust Speed Precip Events Conditions
12:58 AM 44.4 °F 37.2 °F 24.4 °F 45% 30.18 in 10.0 mi SE 16.1 mph - N/A   Clear
1:58 AM 42.8 °F 35.1 °F 24.6 °F 49% 30.17 in 10.0 mi SSE 16.1 mph - N/A   Clear
2:58 AM 41.7 °F 33.4 °F 25.0 °F 52% 30.15 in 10.0 mi SE 17.3 mph - N/A   Clear
3:58 AM 39.4 °F 32.7 °F 25.0 °F 56% 30.14 in 10.0 mi SE 10.4 mph - N/A   Clear
4:58 AM 38.8 °F 31.6 °F 25.3 °F 58% 30.12 in 10.0 mi SE 11.5 mph - N/A   Partly Cloudy
5:58 AM 39.7 °F 31.2 °F 25.3 °F 56% 30.12 in 10.0 mi SE 16.1 mph - N/A   Clear
6:58 AM 39.9 °F 31.8 °F 25.2 °F 56% 30.11 in 10.0 mi SE 15.0 mph - N/A   Partly Cloudy
7:58 AM 39.6 °F 31.3 °F 25.7 °F 58% 30.14 in 10.0 mi SE 15.0 mph - N/A   Partly Cloudy
8:58 AM 43.2 °F 35.3 °F 27.1 °F 53% 30.14 in 10.0 mi SE 17.3 mph - N/A   Clear
9:58 AM 46.8 °F - 27.1 °F 46% 30.14 in 10.0 mi SSE 20.7 mph 26.5 mph N/A   Scattered Clouds
10:58 AM 55.6 °F - 30.2 °F 38% 30.11 in 10.0 mi South 23.0 mph 28.8 mph N/A   Clear
11:58 AM 60.3 °F - 32.0 °F 34% 30.11 in 10.0 mi South 19.6 mph - N/A   Partly Cloudy
12:58 PM 64.0 °F - 33.4 °F 32% 30.07 in 10.0 mi South 20.7 mph 28.8 mph N/A   Clear
1:58 PM 68.5 °F - 36.3 °F 31% 30.04 in 10.0 mi South 23.0 mph 26.5 mph N/A   Clear
2:58 PM 71.2 °F - 38.7 °F 31% 30.01 in 10.0 mi South 19.6 mph 32.2 mph N/A   Clear
3:58 PM 74.3 °F - 39.0 °F 28% 29.97 in 10.0 mi South 17.3 mph 21.9 mph N/A   Clear
4:49 PM 75.2 °F - 37.4 °F 25% 29.97 in 10.0 mi South 15.0 mph 20.7 mph N/A   Clear
4:58 PM 75.9 °F - 37.8 °F 25% 29.96 in 10.0 mi South 16.1 mph 23.0 mph N/A   Clear
5:58 PM 75.2 °F - 37.6 °F 26% 29.96 in 10.0 mi South 15.0 mph - N/A   Clear
6:58 PM 73.4 °F - 40.1 °F 30% 29.96 in 10.0 mi SSE 10.4 mph - N/A   Clear
7:58 PM 62.2 °F - 42.3 °F 48% 29.98 in 10.0 mi East 10.4 mph - N/A   Clear
8:58 PM 61.0 °F - 41.2 °F 48% 30.00 in 10.0 mi East 12.7 mph - N/A   Clear
9:58 PM 58.6 °F - 40.6 °F 51% 30.02 in 10.0 mi SE 15.0 mph 21.9 mph N/A   Clear
10:58 PM 58.1 °F - 40.1 °F 51% 30.03 in 10.0 mi ESE 10.4 mph - N/A   Clear
11:58 PM 58.1 °F - 41.5 °F 54% 30.03 in 10.0 mi SE 11.5 mph - N/A   Clear